Simultaneous Nadir Overpasses (SNOs) Predictions

Prediction of SNOs between GOES-14 and NOAA-20 Satellite Orbit:

Table of predicted SNOs for the next 14.0 days since TLE Epoch: 1/23/2021
Index Date Time (GOES-14) GOES-14 Lat,Lon NOAA-20 Lat,Lon Distance(km) Time Diff (sec)
1 01/24/2021 08:36:22 -0.06,-104.37 0.75,-108.11 425.50 80
2 01/25/2021 08:20:17 -0.06,-104.37 -0.21,-103.56 91.21 80
3 01/27/2021 20:23:28 0.05,-104.09 -0.02,-104.32 26.70 80
4 01/28/2021 20:02:03 0.05,-104.09 1.00, -99.79 489.61 80
5 01/30/2021 08:23:51 -0.04,-104.36 0.14,-105.07 81.04 80
6 01/31/2021 08:07:47 -0.04,-104.36 -0.88,-100.54 435.57 80
7 02/01/2021 20:29:42 0.04,-104.09 -0.37,-105.82 198.04 80
8 02/02/2021 20:08:18 0.05,-104.09 0.66,-101.29 318.09 80
9 02/04/2021 08:30:07 -0.04,-104.35 0.43,-106.58 253.29 80
10 02/05/2021 08:14:02 -0.04,-104.35 -0.54,-102.04 263.36 80
